May 5 Mississippi and Alabama TAGA Results above Detection Limit,,,,,
Date_Time,Benzene Avg. (ppb),Toluene Avg. (ppb),Xylene Avg. (ppb),Latitude,Longitude
5/5/2010 23:52:48,0.308,5.194,0.152,30.405516,-88.483898
5/5/2010 23:54:40,0.912,0.406,0.511,30.390076,-88.508266
5/5/2010 23:54:41,1.208,3.125,2.786,30.389982,-88.508413
5/5/2010 23:54:42,2.501,5.695,4.384,30.389887,-88.508561
5/5/2010 23:54:43,2.120,6.601,3.579,30.389792,-88.508711
5/5/2010 23:54:44,1.338,2.489,1.957,30.389696,-88.508862
5/5/2010 23:54:45,1.397,2.692,1.770,30.389599,-88.509014
5/5/2010 23:54:46,0.604,1.042,0.927,30.389502,-88.509166
5/5/2010 23:54:47,0.474,2.313,1.154,30.389406,-88.509315
5/5/2010 23:54:48,0.912,1.217,1.273,30.389311,-88.509463
5/5/2010 23:54:49,1.397,2.083,0.946,30.389218,-88.509609
5/5/2010 23:54:50,0.793,2.516,0.992,30.389125,-88.509754
5/5/2010 23:54:51,0.485,3.733,1.151,30.389031,-88.509900
5/5/2010 23:54:52,1.030,0.406,1.040,30.388937,-88.510047
5/5/2010 23:54:53,0.923,1.271,0.826,30.388843,-88.510197
5/5/2010 23:54:54,0.485,1.447,0.572,30.388748,-88.510351
5/5/2010 23:54:57,0.426,1.271,0.544,30.388450,-88.510822
5/5/2010 23:54:58,0.485,0.203,0.574,30.388348,-88.510980
5/5/2010 23:54:59,0.237,1.069,0.547,30.388245,-88.511141
5/5/2010 23:55:00,0.367,0.839,0.682,30.388141,-88.511303
5/5/2010 23:55:01,0.674,1.704,0.740,30.388035,-88.511467
5/5/2010 23:55:02,0.308,0.812,0.753,30.387930,-88.511635
5/5/2010 23:55:03,0.485,0.406,0.693,30.387823,-88.511804
5/5/2010 23:55:04,0.296,0.609,0.668,30.387716,-88.511975
5/5/2010 23:55:05,0.178,0.839,0.446,30.387608,-88.512147
5/5/2010 23:55:07,0.296,0.609,0.613,30.387388,-88.512490
5/5/2010 23:55:08,0.793,0.866,0.551,30.387279,-88.512662
5/5/2010 23:55:09,0.308,1.271,0.662,30.387170,-88.512834
5/5/2010 23:55:10,0.296,1.271,0.425,30.387061,-88.513007
5/5/2010 23:55:11,0.059,0.839,0.559,30.386952,-88.513181
5/5/2010 23:55:12,0.178,1.042,0.574,30.386842,-88.513353
5/5/2010 23:55:13,0.119,0.609,0.640,30.386732,-88.513526
5/5/2010 23:55:14,0.793,0.636,0.609,30.386622,-88.513700
5/5/2010 23:55:15,0.296,1.042,0.632,30.386511,-88.513875
5/5/2010 23:55:16,0.912,0.433,0.460,30.386401,-88.514050
5/5/2010 23:55:19,0.485,1.244,0.519,30.386063,-88.514577
5/5/2010 23:55:20,0.556,0.812,0.430,30.385950,-88.514753
5/5/2010 23:55:21,0.485,1.704,0.466,30.385839,-88.514930
5/5/2010 23:55:23,0.178,0.203,0.418,30.385616,-88.515284
5/5/2010 23:55:24,0.248,0.203,0.434,30.385505,-88.515460
5/5/2010 23:55:43,0.119,0.000,0.471,30.383502,-88.518619
5/5/2010 23:55:44,0.604,0.203,0.564,30.383395,-88.518786
5/5/2010 23:55:46,0.356,1.934,0.448,30.383181,-88.519124
5/5/2010 23:55:47,0.356,0.839,0.493,30.383073,-88.519295
5/5/2010 23:55:48,0.237,1.474,0.583,30.382965,-88.519467
5/5/2010 23:55:49,0.119,0.406,0.493,30.382855,-88.519640
5/5/2010 23:55:50,0.367,1.217,0.696,30.382745,-88.519814
5/5/2010 23:55:51,0.426,0.609,0.478,30.382633,-88.519989
5/5/2010 23:55:54,0.059,1.042,0.502,30.382296,-88.520519
5/5/2010 23:56:01,0.296,0.839,0.416,30.381521,-88.521741
5/5/2010 23:56:05,0.804,0.203,0.531,30.381093,-88.522413
5/5/2010 23:56:09,0.426,0.433,0.473,30.380706,-88.523022
5/5/2010 23:56:10,0.415,0.406,0.438,30.380619,-88.523159
5/5/2010 23:56:11,0.426,2.083,0.499,30.380539,-88.523286
5/5/2010 23:56:21,0.059,0.203,0.435,30.379991,-88.524155
5/5/2010 23:56:23,0.367,0.609,0.417,30.379928,-88.524256
5/5/2010 23:56:27,0.426,1.704,0.411,30.379828,-88.524412
5/5/2010 23:56:28,0.485,1.907,0.460,30.379809,-88.524442
5/5/2010 23:56:29,0.237,0.609,0.651,30.379792,-88.524468
5/5/2010 23:56:30,0.356,0.839,0.430,30.379778,-88.524490
5/5/2010 23:56:31,0.545,0.636,0.596,30.379767,-88.524508
5/5/2010 23:56:32,0.308,0.636,0.512,30.379757,-88.524524
5/5/2010 23:56:33,0.604,0.406,0.411,30.379748,-88.524537
5/5/2010 23:56:34,0.178,1.244,0.638,30.379741,-88.524548
5/5/2010 23:56:35,1.030,0.839,0.607,30.379735,-88.524558
5/5/2010 23:56:36,0.734,2.137,0.605,30.379729,-88.524567
5/5/2010 23:56:37,0.356,3.247,0.437,30.379724,-88.524574
5/5/2010 23:56:38,0.059,0.406,0.440,30.379719,-88.524582
5/5/2010 23:56:39,0.237,1.042,0.635,30.379714,-88.524589
5/5/2010 23:56:40,0.356,1.015,0.667,30.379709,-88.524596
5/5/2010 23:56:41,0.426,0.839,0.572,30.379705,-88.524603
5/5/2010 23:56:42,0.356,2.313,0.576,30.379702,-88.524608
5/5/2010 23:56:43,0.545,1.042,0.710,30.379700,-88.524610
5/5/2010 23:56:44,1.278,1.042,0.898,30.379700,-88.524611
5/5/2010 23:56:56,0.308,0.203,0.417,30.379694,-88.524620
5/5/2010 23:57:19,0.178,0.433,0.416,30.379080,-88.525590
5/5/2010 23:57:20,2.012,0.203,0.470,30.379003,-88.525711
5/5/2010 23:57:22,0.604,1.880,0.425,30.378841,-88.525967
5/5/2010 23:57:23,0.545,1.474,0.861,30.378755,-88.526101
5/5/2010 23:57:24,0.711,0.839,0.862,30.378666,-88.526237
5/5/2010 23:57:25,1.645,5.032,2.271,30.378577,-88.526377
5/5/2010 23:57:26,2.805,5.722,2.396,30.378486,-88.526520
5/5/2010 23:57:27,0.971,2.083,1.346,30.378395,-88.526664
5/5/2010 23:57:30,0.178,1.271,0.470,30.378122,-88.527096
5/5/2010 23:57:31,1.856,1.042,0.747,30.378028,-88.527244
5/5/2010 23:57:32,0.485,1.447,1.189,30.377933,-88.527394
5/5/2010 23:57:33,0.663,1.447,1.437,30.377837,-88.527546
5/5/2010 23:57:34,0.782,2.110,1.335,30.377739,-88.527700
5/5/2010 23:57:35,1.419,1.474,0.993,30.377639,-88.527857
5/5/2010 23:57:36,1.219,1.447,1.119,30.377537,-88.528016
5/5/2010 23:57:37,0.841,1.042,1.013,30.377434,-88.528178
5/5/2010 23:57:38,1.975,0.812,0.843,30.377330,-88.528342
5/5/2010 23:57:39,0.723,0.609,0.849,30.377225,-88.528508
5/5/2010 23:57:40,0.912,0.433,0.981,30.377119,-88.528675
5/5/2010 23:57:41,0.663,1.015,0.841,30.377013,-88.528844
5/5/2010 23:57:42,1.019,1.650,0.893,30.376907,-88.529012
5/5/2010 23:57:43,0.604,0.866,0.713,30.376801,-88.529179
5/5/2010 23:57:44,0.734,1.474,0.819,30.376694,-88.529346
5/5/2010 23:57:45,0.723,0.203,0.577,30.376587,-88.529515
5/5/2010 23:57:46,0.296,0.636,0.890,30.376480,-88.529684
5/5/2010 23:57:47,0.178,0.000,0.535,30.376372,-88.529854
5/5/2010 23:57:48,0.237,1.244,0.567,30.376265,-88.530025
5/5/2010 23:57:50,0.059,0.636,0.482,30.376048,-88.530365
5/5/2010 23:57:51,0.308,0.812,0.521,30.375941,-88.530534
5/5/2010 23:57:52,0.367,1.474,0.473,30.375835,-88.530701
5/5/2010 23:57:53,1.171,0.812,0.419,30.375729,-88.530866
5/5/2010 23:57:54,0.059,1.501,0.604,30.375626,-88.531029
5/5/2010 23:57:55,0.178,0.636,0.813,30.375526,-88.531187
5/5/2010 23:57:56,0.485,1.271,0.542,30.375426,-88.531345
5/5/2010 23:57:57,0.237,0.406,0.507,30.375325,-88.531504
5/5/2010 23:57:58,0.723,0.406,0.508,30.375223,-88.531665
5/5/2010 23:57:59,0.178,1.447,0.630,30.375119,-88.531828
5/5/2010 23:58:00,0.534,1.271,0.632,30.375012,-88.531992
5/5/2010 23:58:01,0.534,0.609,0.523,30.374904,-88.532156
5/5/2010 23:58:02,1.041,1.042,0.503,30.374795,-88.532316
5/5/2010 23:58:03,0.415,1.880,0.661,30.374688,-88.532470
5/5/2010 23:58:04,1.608,0.203,0.598,30.374585,-88.532619
5/5/2010 23:58:22,0.237,0.839,0.492,30.373650,-88.534072
5/5/2010 23:58:23,0.415,0.406,0.602,30.373644,-88.534082
5/5/2010 23:58:24,0.674,0.406,0.472,30.373641,-88.534087
5/5/2010 23:58:25,0.308,1.474,0.666,30.373640,-88.534088
5/5/2010 23:58:26,0.308,0.203,0.620,30.373640,-88.534088
5/5/2010 23:58:27,0.841,1.907,0.667,30.373640,-88.534088
5/5/2010 23:58:28,1.160,1.677,0.763,30.373640,-88.534088
5/5/2010 23:58:29,1.219,0.406,0.692,30.373640,-88.534088
5/5/2010 23:58:30,0.308,0.406,0.622,30.373640,-88.534088
5/5/2010 23:58:31,0.545,0.433,0.637,30.373640,-88.534088
5/5/2010 23:58:32,0.296,0.406,0.427,30.373640,-88.534088
5/5/2010 23:58:37,0.059,0.203,0.488,30.373640,-88.534088
5/5/2010 23:58:38,0.059,1.271,0.447,30.373640,-88.534088
5/5/2010 23:58:39,0.485,0.406,0.421,30.373640,-88.534088
5/5/2010 23:58:43,1.101,0.609,0.459,30.373640,-88.534088
5/5/2010 23:59:17,0.426,0.406,0.616,30.372672,-88.535649
5/5/2010 23:59:18,0.652,3.328,1.557,30.372596,-88.535784
5/5/2010 23:59:19,0.663,2.692,1.980,30.372521,-88.535921
5/5/2010 23:59:20,1.208,3.963,2.665,30.372446,-88.536062
5/5/2010 23:59:21,1.030,3.585,2.616,30.372373,-88.536206
5/5/2010 23:59:22,1.386,3.382,2.488,30.372300,-88.536352
5/5/2010 23:59:23,1.386,2.083,1.890,30.372228,-88.536501
5/5/2010 23:59:24,1.030,1.447,1.186,30.372157,-88.536653
5/5/2010 23:59:25,0.593,1.880,1.240,30.372086,-88.536809
5/5/2010 23:59:26,2.190,2.516,1.685,30.372018,-88.536969
5/5/2010 23:59:27,0.723,2.692,1.475,30.371951,-88.537129
5/5/2010 23:59:28,0.545,1.677,0.994,30.371887,-88.537290
5/5/2010 23:59:29,0.426,1.474,1.158,30.371826,-88.537452
5/5/2010 23:59:30,0.474,1.244,1.400,30.371767,-88.537617
5/5/2010 23:59:31,0.782,3.585,1.292,30.371710,-88.537785
5/5/2010 23:59:32,1.527,2.083,1.252,30.371653,-88.537955
5/5/2010 23:59:33,0.912,1.244,1.025,30.371597,-88.538128
5/5/2010 23:31:08,0.426,0.839,0.437,30.426286,-88.245160
5/5/2010 23:31:09,0.119,1.069,0.435,30.426418,-88.245195
5/5/2010 23:31:12,0.723,0.406,0.641,30.426816,-88.245292
5/5/2010 23:31:13,1.041,1.704,0.701,30.426944,-88.245319
5/5/2010 23:31:14,0.485,0.609,0.603,30.427074,-88.245348
5/5/2010 23:31:15,0.615,0.636,0.464,30.427203,-88.245378
5/5/2010 23:31:16,0.367,0.000,0.453,30.427312,-88.245421
5/5/2010 23:31:18,0.793,1.015,0.593,30.427592,-88.245460
5/5/2010 23:31:19,0.119,0.839,0.452,30.427713,-88.245487
5/5/2010 23:31:28,0.119,1.042,0.454,30.428427,-88.245743
5/5/2010 23:31:29,0.545,0.406,0.442,30.428458,-88.245784
5/5/2010 23:31:35,0.367,1.271,0.616,30.428481,-88.246161
5/5/2010 23:31:36,0.296,0.609,0.649,30.428483,-88.246240
5/5/2010 23:31:37,2.438,2.773,0.778,30.428479,-88.246330
5/5/2010 23:31:39,1.219,0.636,0.614,30.428479,-88.246522
5/5/2010 23:31:40,1.138,1.907,0.765,30.428484,-88.246623
5/5/2010 23:32:17,0.000,0.839,0.435,30.431441,-88.251536
5/5/2010 23:32:18,0.804,2.570,0.420,30.431560,-88.251714
5/5/2010 23:32:56,2.790,0.000,0.010,30.435853,-88.258078
5/5/2010 23:34:48,0.119,0.866,0.500,30.449270,-88.277708
5/5/2010 23:34:49,0.059,0.636,0.945,30.449381,-88.277859
5/5/2010 23:34:50,0.237,2.543,0.684,30.449494,-88.278009
5/5/2010 23:35:08,0.485,2.137,0.446,30.451544,-88.280778
5/5/2010 23:35:09,0.059,0.406,0.545,30.451663,-88.280926
5/5/2010 23:35:10,0.119,0.609,0.445,30.451776,-88.281079
5/5/2010 23:35:11,0.308,0.839,0.778,30.451890,-88.281231
5/5/2010 23:35:12,0.982,1.704,0.931,30.452004,-88.281384
5/5/2010 23:35:13,0.900,1.015,0.966,30.452118,-88.281536
5/5/2010 23:35:14,0.615,0.812,0.770,30.452230,-88.281688
5/5/2010 23:35:15,0.119,1.474,0.426,30.452344,-88.281839
5/5/2010 23:35:59,0.485,0.203,0.499,30.457798,-88.289177
5/5/2010 23:36:00,0.178,0.433,0.584,30.457944,-88.289375
5/5/2010 23:36:01,0.982,0.203,0.412,30.458091,-88.289571
5/5/2010 23:36:45,0.059,0.609,0.702,30.464573,-88.298309
5/5/2010 23:36:46,0.000,1.501,0.794,30.464708,-88.298493
5/5/2010 23:36:52,0.059,0.406,1.246,30.465535,-88.299620
5/5/2010 23:36:53,1.267,4.396,6.178,30.465678,-88.299814
5/5/2010 23:36:54,2.523,3.179,3.968,30.465825,-88.300008
5/5/2010 23:36:55,1.149,2.462,1.655,30.465971,-88.300205
5/5/2010 23:36:56,0.356,1.474,0.900,30.466117,-88.300402
5/5/2010 23:36:57,1.101,1.042,0.890,30.466267,-88.300593
5/5/2010 23:36:58,0.356,0.839,0.747,30.466407,-88.300791
5/5/2010 23:36:59,0.296,0.000,0.508,30.466551,-88.300983
5/5/2010 23:37:00,0.119,1.244,0.490,30.466692,-88.301174
5/5/2010 23:38:35,0.059,4.328,0.041,30.472606,-88.319681
5/5/2010 23:39:25,2.968,0.866,0.131,30.472663,-88.330408
5/5/2010 23:39:31,0.059,0.433,0.630,30.472655,-88.331765
5/5/2010 23:40:34,0.059,0.203,0.443,30.476848,-88.336069
5/5/2010 23:40:35,0.426,0.609,1.208,30.476975,-88.336069
5/5/2010 23:40:36,0.604,1.853,1.404,30.477103,-88.336071
5/5/2010 23:40:37,0.000,0.406,0.686,30.477229,-88.336078
5/5/2010 23:40:38,0.604,1.907,0.534,30.477351,-88.336091
5/5/2010 23:40:39,0.119,0.839,0.570,30.477470,-88.336107
5/5/2010 23:40:40,0.119,0.609,0.422,30.477581,-88.336126
5/5/2010 23:42:06,0.178,0.406,0.500,30.478141,-88.339405
5/5/2010 23:42:07,0.615,2.746,1.904,30.478126,-88.339488
5/5/2010 23:42:08,0.841,2.922,2.924,30.478109,-88.339584
5/5/2010 23:42:09,0.237,0.839,0.712,30.478090,-88.339689
5/5/2010 23:42:18,0.782,1.015,0.847,30.477883,-88.340828
5/5/2010 23:42:19,4.521,2.516,1.329,30.477859,-88.340968
5/5/2010 23:42:20,0.711,1.650,0.908,30.477835,-88.341106
5/5/2010 23:42:31,0.367,0.433,0.519,30.477540,-88.342801
5/5/2010 23:42:32,0.367,1.042,0.598,30.477511,-88.342971
5/5/2010 23:42:56,0.119,0.000,0.688,30.476192,-88.347503
5/5/2010 23:42:57,0.000,0.000,0.701,30.476090,-88.347701
5/5/2010 23:42:58,0.000,0.000,0.457,30.475987,-88.347898
5/5/2010 23:43:04,0.059,2.570,0.985,30.475398,-88.349117
5/5/2010 23:43:05,0.308,1.447,1.008,30.475310,-88.349333
5/5/2010 23:49:23,0.296,0.203,0.454,30.439199,-88.434941
5/5/2010 23:51:18,0.534,1.042,0.632,30.419473,-88.461773
5/5/2010 23:51:19,0.782,1.271,0.562,30.419319,-88.462015
5/5/2010 23:52:15,1.041,0.000,0.490,30.410632,-88.475834
5/5/2010 23:52:16,0.734,0.406,0.543,30.410479,-88.476075
5/5/2010 22:33:55,0.119,0.609,0.546,30.275630,-88.121325
5/5/2010 22:33:56,0.178,0.406,0.507,30.275853,-88.121443
5/5/2010 22:33:57,0.059,0.433,0.562,30.276076,-88.121562
5/5/2010 22:33:58,0.237,0.812,0.481,30.276298,-88.121681
5/5/2010 22:34:05,0.426,1.069,0.539,30.277854,-88.122512
5/5/2010 22:34:06,0.723,4.220,1.431,30.278079,-88.122631
5/5/2010 22:34:07,0.734,1.447,1.039,30.278304,-88.122751
5/5/2010 22:34:08,0.059,0.812,0.699,30.278530,-88.122872
5/5/2010 22:42:16,3.535,0.203,0.000,30.363698,-88.126611
5/5/2010 22:48:18,0.426,0.609,0.598,30.377919,-88.218065
5/5/2010 22:48:19,0.674,1.677,1.814,30.377914,-88.218329
5/5/2010 22:48:20,0.545,1.853,1.667,30.377909,-88.218590
5/5/2010 22:48:21,0.426,1.474,1.069,30.377901,-88.218849
5/5/2010 22:48:22,0.178,1.217,2.714,30.377887,-88.219123
5/5/2010 22:48:23,0.556,1.704,0.588,30.377883,-88.219385
5/5/2010 22:48:24,0.793,1.623,2.319,30.377880,-88.219647
5/5/2010 22:48:25,3.209,13.027,14.880,30.377877,-88.219909
5/5/2010 22:48:26,3.932,16.908,17.195,30.377880,-88.220162
5/5/2010 22:48:27,3.505,15.543,15.037,30.377889,-88.220419
5/5/2010 22:48:28,3.857,11.078,13.106,30.377896,-88.220679
5/5/2010 22:48:29,3.835,12.756,10.220,30.377909,-88.220937
5/5/2010 22:48:30,1.138,9.888,8.068,30.377923,-88.221193
5/5/2010 22:48:31,1.338,3.990,4.426,30.377944,-88.221447
5/5/2010 22:48:32,1.030,4.599,6.596,30.377965,-88.221708
5/5/2010 22:48:33,2.012,6.425,5.089,30.377999,-88.221959
5/5/2010 22:48:34,0.485,1.069,0.655,30.378041,-88.222199
5/5/2010 22:48:35,0.356,1.271,3.400,30.378084,-88.222444
5/5/2010 22:48:36,1.575,6.303,5.355,30.378135,-88.222684
5/5/2010 22:48:37,1.397,3.787,4.218,30.378186,-88.222915
5/5/2010 22:48:38,2.157,7.927,9.833,30.378245,-88.223140
5/5/2010 22:48:39,2.583,7.724,12.722,30.378306,-88.223357
5/5/2010 22:48:40,3.646,12.837,12.304,30.378368,-88.223571
5/5/2010 22:48:41,1.860,11.741,12.327,30.378430,-88.223780
5/5/2010 22:48:42,3.705,9.455,8.981,30.378492,-88.223985
5/5/2010 22:48:43,1.931,8.387,8.873,30.378553,-88.224186
5/5/2010 22:48:44,3.350,19.451,13.604,30.378616,-88.224382
5/5/2010 22:48:45,4.024,12.458,10.691,30.378672,-88.224574
5/5/2010 22:48:46,2.001,5.695,7.827,30.378729,-88.224769
5/5/2010 22:48:47,3.350,11.944,11.790,30.378787,-88.224953
5/5/2010 22:48:48,2.724,9.049,12.218,30.378853,-88.225122
5/5/2010 22:48:49,3.231,6.885,7.260,30.378906,-88.225299
5/5/2010 22:48:50,1.267,3.787,4.728,30.378949,-88.225479
5/5/2010 22:48:51,2.390,10.118,10.281,30.379002,-88.225643
5/5/2010 22:48:52,2.557,6.506,7.874,30.379053,-88.225811
5/5/2010 22:48:53,1.493,7.061,8.602,30.379103,-88.225985
5/5/2010 22:48:54,2.853,4.396,3.630,30.379155,-88.226153
5/5/2010 22:48:55,1.230,1.069,1.102,30.379211,-88.226313
5/5/2010 22:48:56,0.000,0.609,0.834,30.379261,-88.226479
5/5/2010 22:48:57,0.356,4.829,3.005,30.379305,-88.226650
5/5/2010 22:48:58,1.386,3.409,4.246,30.379354,-88.226813
5/5/2010 22:48:59,1.101,2.083,2.808,30.379402,-88.226974
5/5/2010 22:49:00,0.237,1.677,1.954,30.379451,-88.227133
5/5/2010 22:49:01,1.338,2.340,3.377,30.379500,-88.227291
5/5/2010 22:49:02,1.208,2.746,3.929,30.379550,-88.227448
5/5/2010 22:49:03,0.793,4.802,3.112,30.379598,-88.227603
5/5/2010 22:49:04,0.296,0.839,1.747,30.379642,-88.227758
5/5/2010 22:49:05,1.089,2.692,2.484,30.379694,-88.227900
5/5/2010 22:49:06,1.197,3.787,3.103,30.379710,-88.228066
5/5/2010 22:49:07,0.237,2.110,2.028,30.379765,-88.228203
5/5/2010 22:49:08,0.237,1.650,1.837,30.380107,-88.229307
5/5/2010 22:49:15,0.545,1.704,1.564,30.380156,-88.229468
5/5/2010 22:49:16,0.960,3.382,2.561,30.380272,-88.229793
5/5/2010 22:49:18,0.615,1.271,1.519,30.380325,-88.229957
5/5/2010 22:49:19,1.219,1.880,1.306,30.380374,-88.230132
5/5/2010 22:49:20,0.367,1.650,0.913,30.380426,-88.230298
5/5/2010 22:49:21,0.308,0.406,0.511,30.380479,-88.230463
5/5/2010 22:49:23,0.059,0.406,0.432,30.380581,-88.230809
5/5/2010 22:49:24,0.556,0.406,1.141,30.380634,-88.230976
5/5/2010 22:49:25,0.059,0.203,0.647,30.380686,-88.231148
5/5/2010 22:49:26,0.663,2.083,1.849,30.380736,-88.231325
5/5/2010 22:49:27,1.289,0.839,1.795,30.380789,-88.231496
5/5/2010 22:49:28,0.178,0.406,0.667,30.380842,-88.231667
5/5/2010 22:49:29,0.059,1.474,1.253,30.380894,-88.231838
5/5/2010 22:49:30,0.923,1.880,2.136,30.380919,-88.232005
5/5/2010 22:49:31,0.415,2.286,2.374,30.380940,-88.232181
5/5/2010 22:49:32,0.356,3.787,1.966,30.381034,-88.232347
5/5/2010 22:49:33,0.119,1.677,0.678,30.381086,-88.232517
5/5/2010 22:49:34,0.248,1.244,0.551,30.381161,-88.232684
5/5/2010 22:49:35,1.786,1.474,2.209,30.381216,-88.232856
5/5/2010 22:49:36,0.415,1.042,2.269,30.381270,-88.233027
5/5/2010 22:49:37,1.149,7.169,3.147,30.381319,-88.233210
5/5/2010 22:49:38,1.397,3.558,2.130,30.381371,-88.233384
5/5/2010 22:49:39,0.723,1.217,2.456,30.381425,-88.233555
5/5/2010 22:49:40,0.474,2.340,2.789,30.381476,-88.233731
5/5/2010 22:49:41,0.971,3.936,2.590,30.381531,-88.233894
5/5/2010 22:49:42,0.863,0.839,1.404,30.381582,-88.234074
5/5/2010 22:49:43,0.426,1.650,1.955,30.381639,-88.234236
5/5/2010 22:49:44,0.723,0.433,0.852,30.381694,-88.234409
5/5/2010 22:49:45,0.059,0.609,0.511,30.381745,-88.234581
5/5/2010 22:49:46,0.119,0.203,0.668,30.381796,-88.234751
5/5/2010 22:49:47,0.308,0.812,0.775,30.381850,-88.234920
5/5/2010 22:49:48,0.804,1.271,0.702,30.381897,-88.235094
5/5/2010 22:49:49,0.119,1.042,0.983,30.381945,-88.235261
5/5/2010 22:49:50,0.237,2.435,1.254,30.381991,-88.235430
5/5/2010 22:49:51,0.237,1.015,0.996,30.382043,-88.235598
5/5/2010 22:49:52,0.485,0.636,1.211,30.382094,-88.235768
5/5/2010 22:49:53,0.923,1.015,0.921,30.382145,-88.235939
5/5/2010 22:49:54,0.308,0.609,0.571,30.382195,-88.236108
5/5/2010 22:49:55,0.059,0.203,0.732,30.382250,-88.236271
5/5/2010 22:49:56,0.000,1.042,1.001,30.382303,-88.236439
5/5/2010 22:49:57,0.615,0.636,0.918,30.382355,-88.236605
5/5/2010 22:49:58,0.296,1.880,1.162,30.382407,-88.236770
5/5/2010 22:49:59,0.178,0.636,0.732,30.382455,-88.236933
5/5/2010 22:50:00,0.000,0.812,0.698,30.382503,-88.237085
5/5/2010 22:50:01,0.237,0.406,1.013,30.382549,-88.237232
5/5/2010 22:50:02,0.237,1.069,0.781,30.382598,-88.237374
5/5/2010 22:50:03,0.178,1.069,0.827,30.382646,-88.237512
5/5/2010 22:50:04,0.485,0.636,0.542,30.382695,-88.237644
5/5/2010 22:50:05,0.426,1.244,0.544,30.382744,-88.237769
5/5/2010 22:50:07,0.059,0.636,0.708,30.382849,-88.237995
5/5/2010 22:50:08,0.237,0.433,0.543,30.382897,-88.238095
5/5/2010 22:50:13,0.178,0.609,1.055,30.383003,-88.238417
5/5/2010 22:50:14,0.426,0.433,0.672,30.382994,-88.238450
5/5/2010 22:50:15,0.308,0.839,0.435,30.382977,-88.238476
5/5/2010 22:50:54,0.000,5.167,0.092,30.381196,-88.240152
5/5/2010 22:51:34,0.000,0.433,0.422,30.379219,-88.242023
5/5/2010 22:51:35,0.059,0.203,0.504,30.379134,-88.242045
5/5/2010 22:51:45,0.000,4.761,0.082,30.378403,-88.242228
5/5/2010 22:53:16,0.000,0.839,0.492,30.380297,-88.254060
5/5/2010 22:53:17,1.030,2.110,1.186,30.380341,-88.254215
5/5/2010 22:54:22,0.119,0.406,0.835,30.384980,-88.263093
5/5/2010 22:54:23,0.474,2.570,1.613,30.385062,-88.263247
5/5/2010 22:54:24,0.237,1.244,0.744,30.385144,-88.263398
5/5/2010 22:55:47,0.000,1.244,0.574,30.391304,-88.265935
5/5/2010 22:55:48,0.000,0.000,2.315,30.391363,-88.265945
5/5/2010 22:55:49,0.000,0.636,3.416,30.391421,-88.265948
5/5/2010 22:55:50,0.059,0.433,2.809,30.391484,-88.265935
5/5/2010 22:55:51,0.059,0.000,1.619,30.391547,-88.265914
5/5/2010 22:55:52,0.000,0.000,1.196,30.391612,-88.265891
5/5/2010 22:55:53,0.993,0.433,0.548,30.391676,-88.265867
5/5/2010 22:56:38,0.308,0.203,0.810,30.394059,-88.264202
5/5/2010 22:56:39,0.000,0.866,2.302,30.394122,-88.264165
5/5/2010 22:56:40,0.248,1.298,4.385,30.394184,-88.264128
5/5/2010 22:56:41,0.059,0.000,3.721,30.394248,-88.264091
5/5/2010 22:56:42,0.237,0.433,1.796,30.394313,-88.264054
5/5/2010 22:56:43,0.000,0.000,0.462,30.394378,-88.264018
5/5/2010 22:57:02,0.119,5.438,0.320,30.395507,-88.262876
5/5/2010 22:57:03,0.059,10.443,0.438,30.395549,-88.262802
5/5/2010 22:57:04,0.000,12.675,0.576,30.395589,-88.262731
5/5/2010 22:57:05,0.308,15.380,0.538,30.395627,-88.262661
5/5/2010 22:57:06,0.178,13.391,0.393,30.395665,-88.262590
5/5/2010 22:57:07,0.000,7.088,0.358,30.395702,-88.262519
5/5/2010 22:57:08,0.000,10.267,0.361,30.395739,-88.262451
5/5/2010 22:57:09,0.059,9.103,0.471,30.395775,-88.262383
5/5/2010 22:57:10,0.000,9.022,0.362,30.395811,-88.262314
5/5/2010 22:57:11,0.000,4.694,0.299,30.395846,-88.262243
5/5/2010 22:57:12,0.000,6.303,0.185,30.395879,-88.262172
5/5/2010 22:57:14,0.000,5.641,0.276,30.395936,-88.262021
5/5/2010 22:57:15,0.059,5.695,0.411,30.395958,-88.261940
5/5/2010 22:58:02,0.615,4.531,0.315,30.398051,-88.257518
5/5/2010 22:58:44,0.308,2.516,0.430,30.401683,-88.255297
5/5/2010 22:58:45,0.000,1.244,0.892,30.401762,-88.255239
5/5/2010 22:58:46,0.059,3.963,0.954,30.401838,-88.255177
5/5/2010 22:58:47,0.119,3.125,0.628,30.401913,-88.255115
5/5/2010 22:58:48,0.059,1.474,0.478,30.401982,-88.255048
5/5/2010 22:58:51,0.059,2.083,0.483,30.402161,-88.254821
5/5/2010 22:58:52,0.000,2.313,0.426,30.402216,-88.254739
5/5/2010 22:58:53,0.237,0.839,0.495,30.402267,-88.254655
5/5/2010 21:56:16,0.119,1.907,0.433,30.379364,-88.157412
5/5/2010 21:56:17,0.059,0.636,0.447,30.379229,-88.157532
5/5/2010 21:56:19,2.483,0.406,0.429,30.378997,-88.157751
5/5/2010 21:56:20,0.178,0.866,0.455,30.378897,-88.157850
5/5/2010 21:56:28,0.367,1.880,1.315,30.378263,-88.158506
5/5/2010 21:56:29,0.296,3.409,1.644,30.378201,-88.158571
5/5/2010 21:56:30,0.356,1.704,1.789,30.378142,-88.158633
5/5/2010 21:56:31,0.782,1.015,1.025,30.378086,-88.158691
5/5/2010 21:56:32,0.296,0.636,0.471,30.378032,-88.158746
5/5/2010 21:56:33,0.178,1.271,0.740,30.377982,-88.158798
5/5/2010 21:56:34,0.604,0.406,1.007,30.377934,-88.158848
5/5/2010 21:56:35,0.367,1.244,0.666,30.377884,-88.158900
5/5/2010 21:56:37,0.367,0.000,0.430,30.377790,-88.159025
5/5/2010 21:56:38,0.119,0.636,0.519,30.377759,-88.159104
5/5/2010 21:56:39,0.615,1.042,0.743,30.377670,-88.159129
5/5/2010 21:56:40,0.059,0.636,1.058,30.377620,-88.159181
5/5/2010 21:56:41,2.849,0.406,1.083,30.377576,-88.159230
5/5/2010 21:56:42,0.000,0.000,0.565,30.377530,-88.159266
5/5/2010 21:56:43,0.119,0.203,0.547,30.377505,-88.159305
5/5/2010 21:56:44,0.119,2.137,0.807,30.377473,-88.159324
5/5/2010 21:56:45,0.485,0.839,0.744,30.377458,-88.159342
5/5/2010 21:56:46,0.296,2.462,0.539,30.377452,-88.159350
5/5/2010 21:56:47,0.674,1.298,0.665,30.377448,-88.159355
5/5/2010 21:56:48,0.900,3.274,2.623,30.377442,-88.159361
5/5/2010 21:56:49,0.663,3.125,2.161,30.377425,-88.159371
5/5/2010 21:56:50,1.041,2.367,1.540,30.377398,-88.159379
5/5/2010 21:56:51,0.426,1.907,1.161,30.377363,-88.159378
5/5/2010 21:56:52,0.615,2.110,1.061,30.377324,-88.159364
5/5/2010 21:56:53,0.237,0.406,0.566,30.377284,-88.159335
5/5/2010 21:56:54,0.308,0.433,0.449,30.377241,-88.159294